x

Destruction Island, Wa (desw1) Weather Station

7:00 - Sun 19th Feb 2017 All times are PST. -8 hours from GMT.

  • Wind
    31mph, 36mph gusts
  • Luft Temp 43°f
  • Sea Pressure 992.5mb
  • Destruction Island, Wa
  • Destruction Island, Wa

More Historic Weather Station data

Upgrade to MSW Pro to gain access to the past 30 days of data for over 8000 Wavebouys and Weather Stations around the globe.

Join Pro

Comparision Forecast

View Surf forecast
   
So 02/19 7:00 31 36 mph 992.5mb 43f
6:00 28 30 mph 992.7mb 43f
5:00 16 18 mph 993.2mb 43f
4:00 14 15 mph 993.2mb 42f
3:00 20 21 mph 993.8mb 43f
2:00 21 22 mph 994.4mb 43f
1:00 22 24 mph 994.6mb 42f
12:00 18 20 mph 995.1mb 42f
Sa 02/18 11:00 17 20 mph 995.7mb 42f
10:00 15 16 mph 995.7mb 43f
9:00 13
mph
995.8mb 44f
8:00 13 14 mph 995.7mb 44f
7:00 8 9 mph 995.7mb 45f
6:00 7 8 mph 995.6mb 45f
5:00 13 14 mph 995.7mb 46f
4:00 17 18 mph 995.7mb 46f
3:00 13 15 mph 995.6mb 46f
2:00 15 18 mph 995.5mb 46f
1:00 21 24 mph 995.9mb 45f
12:00 15 20 mph 996mb 46f
11:00 17 18 mph 996.1mb 46f
10:00 16 18 mph 996.4mb 45f
9:00 14 16 mph 996.4mb 45f
8:00 14 16 mph 996.5mb 44f
7:00 10 11 mph 996.8mb 44f
6:00 13 14 mph 997mb 44f
5:00 9 11 mph 997.5mb 44f
4:00 7 9 mph 997.3mb 44f
3:00 6 8 mph 997.4mb 43f
2:00 6
mph
997.5mb 42f
1:00 6
mph
997.7mb 43f
12:00 6
mph
998.1mb 43f
Fr 02/17 11:00 3 5 mph 998.7mb 44f
10:00 6 7 mph 998.9mb 45f
9:00 3 5 mph 999.3mb 46f
8:00 5 6 mph 999.4mb 46f
7:00 14
mph
1000mb 46f
6:00 13 14 mph 1000.4mb 48f
5:00 15 16 mph 1000.5mb 49f
4:00 17
mph
1001mb 49f
3:00 20 22 mph 1001.5mb 48f
2:00 21 23 mph 1002.3mb 47f
1:00 11 13 mph 1003.5mb 48f
12:00 5 6 mph 1004.9mb 47f
11:00  -  1 mph 1005.5mb 47f
10:00 2 3 mph 1006.2mb 46f
9:00 5
mph
1006.5mb 46f
8:00 6 7 mph 1006.7mb 45f
7:00 10 11 mph 1006.6mb 45f
6:00 11 13 mph 1006.5mb 45f
5:00 11 13 mph 1006.5mb 45f
4:00 14 15 mph 1006.6mb 45f
3:00 11
mph
1006.8mb 46f
2:00 14 16 mph 1006.8mb 46f
1:00 9 11 mph 1007mb 45f
12:00 11 13 mph 1006.7mb 46f
Do 02/16 11:00 14 16 mph 1006.4mb 47f
10:00 18 21 mph 1006mb 47f
9:00 14 15 mph 1005.2mb 47f
8:00 14 15 mph 1004.4mb 47f
7:00 14
mph
1003.8mb 47f
6:00 9
mph
1002.9mb 47f
5:00 8
mph
1002.1mb 47f
4:00 9 10 mph 1001.8mb 47f
3:00 7 8 mph 1000.8mb 47f
2:00 8 9 mph 999.8mb 47f
1:00 13 14 mph 999.6mb 46f
12:00 21 23 mph 999.1mb 47f
11:00 6 8 mph 997.9mb 48f
10:00 7 8 mph 997.4mb 47f
9:00 9 10 mph 997.3mb 47f
8:00 13
mph
997mb 47f
7:00 13
mph
996.2mb 47f
6:00 16 17 mph 995.6mb 47f
5:00 16 18 mph 995.4mb 46f
4:00 30 32 mph 994.6mb 49f
3:00 29 32 mph 994.6mb 49f
2:00 31 34 mph 994.3mb 49f
1:00 45 48 mph 993.4mb 50f
12:00 43 55 mph 992.1mb 51f
Mi 02/15 11:00 44 51 mph 992.1mb 51f
10:00 43 53 mph 992.5mb 51f
9:00 49 56 mph 992.4mb 51f
8:00 48 55 mph 992.9mb 51f
7:00 47 54 mph 993.2mb 51f
6:00 48 55 mph 993.4mb 51f
5:00 52 59 mph 993.4mb 50f